Location: Couloutre
(47.4081°N, 3.2259°E)
Time: 23:33:15
(UTC+00:00)

Cosmos 841 Rocket - Pass Details

Date: 27 February 2020
Orbit: 746 x 773 km, 74.0° (Epoch: 05 April)

Event Time Altitude Azimuth Distance (km) Brightness Sun altitude
Rises 18:59:46 0° 183° (S) 3,178 6.7 -16.2°
Reaches altitude 10° 19:02:10 10° 178° (S) 2,261 5.8 -16.6°
Maximum altitude 19:07:04 47° 105° (ESE) 988 3.6 -17.5°
Drops below altitude 10° 19:12:01 10° 33° (NNE) 2,290 5.7 -18.3°
Sets 19:14:28 0° 27° (NNE) 3,224 6.5 -18.7°
